Anniston, AL

3:08 PM CDT on June 26, 2017 (GMT -0500)
Anniston Metro

Weather History for KANB - March, 2014

Change the Weather History Date:

Friday, March 21, 2014

  Actual Average Record
Temperature  
Mean Temperature 54 °F 56 °F  
Max Temperature 73 °F 68 °F 86 °F (2017)
Min Temperature 34 °F 44 °F 18 °F (1965)
Degree Days  
Heating Degree Days 11    
Month to date heating degree days 263  
Since 1 July heating degree days 2744  
Growing Degree Days 4 (Base 50)    
Moisture  
Dew Point 32 °F    
Average Humidity 53    
Maximum Humidity 89    
Minimum Humidity 17    
Precipitation  
Precipitation 0.00 in 0.15 in 3.32 in (1977)
Month to date precipitation 3.33 3.45  
Year to date precipitation 10.49 13.05  
Sea Level Pressure  
Sea Level Pressure 30.10 in    
Wind  
Wind Speed 4 mph (East)    
Max Wind Speed 14 mph    
Max Gust Speed 17 mph    
Visibility 10 miles    
Events      
T = Trace of Precipitation, MM = Missing Value Source: NWS Daily Summary

Daily Weather History Graph

Daily Weather History Graph

Search for Another Location

Airport or City:

Trip Planner

Search our weather history database for the weather conditions in past years. The results will help you decide how hot, cold, wet, or windy it might be!

Date:

Astronomy

Mar. 21, 2014 Rise Set
Actual Time 6:45 AM CDT 6:55 PM CDT
Civil Twilight 6:20 AM CDT 7:20 PM CDT
Nautical Twilight 5:51 AM CDT 7:49 PM CDT
Astronomical Twilight 5:22 AM CDT 8:19 PM CDT
Moon No Moon Rise 9:50 AM CDT (3/21)
Length of Visible Light 12h 59m
Length of Day
12h 10m
Waning Gibbous, 75% of the Moon is Illuminated
Mar 21
Waning Gibbous
Mar 23
Last Quarter
Mar 30
New
Apr 7
First Quarter
Apr 15
Full

Hourly Weather History & Observations

Time (CDT) Temp. Windchill Dew Point Humidity Pressure Visibility Wind Dir Wind Speed Gust Speed Precip Events Conditions
12:53 AM 39.9 °F 37.8 °F 34.0 °F 79% 30.13 in 10.0 mi East 3.5 mph - N/A   Clear
1:53 AM 39.0 °F 36.8 °F 33.1 °F 79% 30.13 in 10.0 mi NE 3.5 mph - N/A   Clear
2:53 AM 37.9 °F 35.5 °F 34.0 °F 86% 30.13 in 10.0 mi East 3.5 mph - N/A   Clear
3:53 AM 37.0 °F 33.3 °F 33.1 °F 86% 30.13 in 10.0 mi East 4.6 mph - N/A   Clear
4:53 AM 35.1 °F 31.0 °F 32.0 °F 89% 30.13 in 10.0 mi East 4.6 mph - N/A   Clear
5:53 AM 35.1 °F 32.2 °F 32.0 °F 89% 30.14 in 10.0 mi East 3.5 mph - N/A   Clear
6:53 AM 35.1 °F 32.2 °F 30.9 °F 85% 30.16 in 10.0 mi ENE 3.5 mph - N/A   Clear
7:53 AM 39.9 °F 36.7 °F 33.1 °F 77% 30.17 in 10.0 mi ENE 4.6 mph - N/A   Clear
8:53 AM 46.9 °F - 34.0 °F 61% 30.18 in 10.0 mi NE 5.8 mph - N/A   Clear
9:53 AM 55.9 °F - 33.1 °F 42% 30.19 in 10.0 mi NNE 6.9 mph - N/A   Clear
10:53 AM 63.0 °F - 33.1 °F 33% 30.17 in 10.0 mi NE 4.6 mph - N/A   Clear
11:53 AM 66.0 °F - 28.0 °F 24% 30.14 in 10.0 mi Variable 5.8 mph - N/A   Clear
12:53 PM 68.0 °F - 28.9 °F 23% 30.12 in 10.0 mi NNE 5.8 mph - N/A   Clear
1:53 PM 69.1 °F - 26.1 °F 20% 30.07 in 10.0 mi East 3.5 mph - N/A   Clear
2:53 PM 71.1 °F - 28.0 °F 20% 30.04 in 10.0 mi SSW 8.1 mph - N/A   Clear
3:53 PM 72.0 °F - 25.0 °F 17% 30.03 in 10.0 mi SW 6.9 mph - N/A   Clear
4:53 PM 72.0 °F - 26.1 °F 18% 30.01 in 10.0 mi SSW 6.9 mph - N/A   Clear
5:53 PM 71.1 °F - 25.0 °F 18% 30.02 in 10.0 mi South 6.9 mph - N/A   Clear
6:53 PM 66.0 °F - 28.0 °F 24% 30.04 in 10.0 mi SSW 4.6 mph - N/A   Clear
7:53 PM 57.9 °F - 37.0 °F 46% 30.04 in 10.0 mi Calm Calm - N/A   Clear
8:53 PM 55.0 °F - 37.9 °F 53% 30.04 in 10.0 mi Calm Calm - N/A   Clear
9:53 PM 55.0 °F - 41.0 °F 59% 30.04 in 10.0 mi Calm Calm - N/A   Clear
10:53 PM 53.1 °F - 39.0 °F 59% 30.04 in 10.0 mi Calm Calm - N/A   Clear
11:53 PM 53.1 °F - 39.0 °F 59% 30.04 in 10.0 mi NE 3.5 mph - N/A   Clear